Simultaneous Nadir Overpasses (SNOs) Predictions

Prediction of SNOs between AQUA and METOP-B Satellite Orbit:

Table of predicted SNOs for the next 14.0 days since TLE Epoch: 5/13/2023
Index Date (AQUA) Time (AQUA) Lat,Lon (AQUA) SZA (AQUA ) Date (METOP-B) Time (METOP-B) Lat,Lon (METOP-B) SZA (METOP-B ) Distance(km) Time Diff (sec)
1 05/14/2023 00:04:37 -74.22, -4.93 124.37 05/14/2023 00:03:26 -74.13, -6.11 124.43 37.28 71
2 05/14/2023 00:54:07 74.45, 162.16 55.87 05/14/2023 00:53:59 74.46, 162.07 55.89 3.26 8
3 05/14/2023 01:43:33 -74.56, -30.46 124.03 05/14/2023 01:44:39 -74.54, -30.39 124.05 2.49 66
4 05/16/2023 17:57:32 -74.42, 86.41 124.81 05/16/2023 17:56:19 -74.37, 86.25 124.85 7.09 73
5 05/16/2023 18:46:59 74.50,-106.14 55.27 05/16/2023 18:46:56 74.50,-106.07 55.28 2.37 3
6 05/16/2023 19:36:24 -74.55, 61.37 124.68 05/16/2023 19:37:37 -74.54, 61.35 124.70 1.52 73
7 05/19/2023 11:50:22 -74.43, 178.21 125.41 05/19/2023 11:49:15 -74.45, 178.21 125.38 2.66 67
8 05/19/2023 12:39:49 74.51, -14.35 54.68 05/19/2023 12:39:54 74.48, -14.36 54.65 2.93 5
9 05/19/2023 13:29:19 -74.82, 152.52 125.01 05/19/2023 13:30:29 -74.81, 153.85 125.04 38.77 70
10 05/22/2023 05:43:10 -74.46, -90.04 125.94 05/22/2023 05:42:11 -74.47, -89.97 125.92 2.55 59
11 05/22/2023 06:32:36 74.49, 77.52 54.09 05/22/2023 06:32:50 74.50, 77.44 54.10 2.59 14
12 05/22/2023 07:22:13 -75.15,-116.54 125.22 05/22/2023 07:23:18 -75.17,-113.39 125.26 89.70 65
13 05/24/2023 23:35:57 -74.46, 1.80 126.46 05/24/2023 23:35:08 -74.48, 1.81 126.43 2.93 49
14 05/25/2023 00:25:24 74.55, 169.22 53.63 05/25/2023 00:25:46 74.56, 169.34 53.64 3.63 22



Historial Predications of SNOs between AQUA and METOP-B
